START_TIME,STEP,MOV.,A39,t_acc.,A33,t_acc.,P32,t_acc.,P31,t_acc.
1981-08-29 00:00:23.370 ,6,0,0.,0.8,0.,0.8,0.,0.8,3.,0.8
1981-08-29 00:00:24.170 ,6,0,0.,0.8,0.,0.8,0.,0.8,2.,0.8
1981-08-29 00:00:24.970 ,6,0,0.,0.8,0.,0.8,0.,0.8,2.,0.8
1981-08-29 00:00:25.770 ,6,0,0.,0.8,0.,0.8,0.,0.8,2.,0.8
1981-08-29 00:00:26.570 ,6,0,0.,0.8,0.,0.8,0.,0.8,5.,0.8
1981-08-29 00:00:27.370 ,6,0,0.,0.8,0.,0.8,0.,0.8,3.,0.8
1981-08-29 00:00:28.170 ,6,0,0.,0.8,0.,0.8,0.,0.8,1.,0.8
1981-08-29 00:00:28.970 ,6,0,0.,0.8,0.,0.8,0.,0.8,3.,0.8
1981-08-29 00:00:29.770 ,6,0,0.,0.8,0.,0.8,0.,0.8,4.,0.8
1981-08-29 00:00:30.570 ,6,0,0.,0.8,0.,0.8,0.,0.8,4.,0.8
1981-08-29 00:00:31.370 ,6,0,0.,0.8,0.,0.8,0.,0.8,5.,0.8
1981-08-29 00:00:32.170 ,6,0,0.,0.8,0.,0.8,0.,0.8,5.,0.8
1981-08-29 00:00:32.970 ,6,0,0.,0.8,0.,0.8,0.,0.8,2.,0.8
1981-08-29 00:00:33.770 ,6,0,0.,0.8,0.,0.8,0.,0.8,6.,0.8
1981-08-29 00:00:34.570 ,6,0,0.,0.8,0.,0.8,0.,0.8,2.,0.8
1981-08-29 00:00:35.370 ,6,0,0.,0.8,0.,0.8,0.,0.8,2.,0.8
1981-08-29 00:00:36.170 ,6,0,0.,0.8,0.,0.8,0.,0.8,6.,0.8
1981-08-29 00:00:36.970 ,6,0,0.,0.8,0.,0.8,0.,0.8,3.,0.8
1981-08-29 00:00:37.770 ,6,0,0.,0.8,0.,0.8,0.,0.8,3.,0.8
1981-08-29 00:00:38.570 ,6,0,0.,0.8,0.,0.8,0.,0.8,3.,0.8
1981-08-29 00:00:39.370 ,6,0,0.,0.8,0.,0.8,0.,0.8,5.,0.8
1981-08-29 00:00:40.170 ,6,0,0.,0.8,0.,0.8,0.,0.8,3.,0.8
1981-08-29 00:00:40.970 ,6,0,0.,0.8,0.,0.8,0.,0.8,2.,0.8
1981-08-29 00:00:41.770 ,6,0,0.,0.8,0.,0.8,0.,0.8,5.,0.8
1981-08-29 00:00:42.570 ,6,0,0.,0.8,0.,0.8,0.,0.8,5.,0.8
1981-08-29 00:00:43.370 ,6,0,0.,0.8,0.,0.8,0.,0.8,1.,0.8
1981-08-29 00:00:44.170 ,6,0,0.,0.8,0.,0.8,0.,0.8,1.,0.8
1981-08-29 00:00:44.970 ,6,0,0.,0.8,0.,0.8,0.,0.8,1.,0.8
1981-08-29 00:00:45.770 ,6,0,0.,0.8,0.,0.8,0.,0.8,4.,0.8
1981-08-29 00:00:46.570 ,6,0,0.,0.8,0.,0.8,0.,0.8,1.,0.8
1981-08-29 00:00:47.370 ,7,0,0.,0.8,0.,0.8,0.,0.8,3.,0.8
1981-08-29 00:00:48.170 ,7,0,0.,0.8,0.,0.8,0.,0.8,2.,0.8
1981-08-29 00:00:48.970 ,7,0,0.,0.8,0.,0.8,0.,0.8,3.,0.8
1981-08-29 00:00:49.770 ,7,0,0.,0.8,0.,0.8,0.,0.8,5.,0.8
1981-08-29 00:00:50.570 ,7,0,0.,0.8,0.,0.8,0.,0.8,3.,0.8
1981-08-29 00:00:51.370 ,7,0,0.,0.8,0.,0.8,0.,0.8,5.,0.8
1981-08-29 00:00:52.170 ,7,0,0.,0.8,0.,0.8,0.,0.8,6.,0.8
1981-08-29 00:00:52.970 ,7,0,0.,0.8,0.,0.8,0.,0.8,2.,0.8
1981-08-29 00:00:53.770 ,7,0,0.,0.8,0.,0.8,0.,0.8,3.,0.8
1981-08-29 00:00:54.570 ,7,0,0.,0.8,0.,0.8,0.,0.8,2.,0.8
1981-08-29 00:00:55.370 ,7,0,0.,0.8,0.,0.8,0.,0.8,2.,0.8
1981-08-29 00:00:56.170 ,7,0,0.,0.8,0.,0.8,0.,0.8,3.,0.8
1981-08-29 00:00:56.970 ,7,0,0.,0.8,0.,0.8,0.,0.8,5.,0.8
1981-08-29 00:00:57.770 ,7,0,0.,0.8,0.,0.8,0.,0.8,6.,0.8
1981-08-29 00:00:58.570 ,7,0,0.,0.8,0.,0.8,0.,0.8,1.,0.8
1981-08-29 00:00:59.370 ,7,0,0.,0.8,0.,0.8,0.,0.8,6.,0.8
1981-08-29 00:01:00.170 ,7,0,0.,0.8,0.,0.8,0.,0.8,5.,0.8
1981-08-29 00:01:00.970 ,7,0,0.,0.8,0.,0.8,0.,0.8,3.,0.8
1981-08-29 00:01:01.770 ,7,0,0.,0.8,0.,0.8,0.,0.8,3.,0.8
1981-08-29 00:01:02.570 ,7,0,0.,0.8,0.,0.8,0.,0.8,2.,0.8
1981-08-29 00:01:03.370 ,7,0,0.,0.8,0.,0.8,0.,0.8,5.,0.8
1981-08-29 00:01:04.170 ,7,0,0.,0.8,0.,0.8,0.,0.8,5.,0.8
1981-08-29 00:01:04.970 ,7,0,0.,0.8,0.,0.8,0.,0.8,3.,0.8
1981-08-29 00:01:05.770 ,7,0,0.,0.8,0.,0.8,0.,0.8,4.,0.8
1981-08-29 00:01:06.570 ,7,0,0.,0.8,0.,0.8,0.,0.8,4.,0.8
1981-08-29 00:01:07.370 ,7,0,0.,0.8,0.,0.8,0.,0.8,1.,0.8
1981-08-29 00:01:08.170 ,7,0,0.,0.8,0.,0.8,0.,0.8,5.,0.8
1981-08-29 00:01:08.970 ,7,0,0.,0.8,0.,0.8,0.,0.8,2.,0.8
1981-08-29 00:01:09.770 ,7,0,0.,0.8,0.,0.8,0.,0.8,4.,0.8
1981-08-29 00:01:10.570 ,7,0,0.,0.8,0.,0.8,0.,0.8,2.,0.8
1981-08-29 00:01:11.360 ,7,0,0.,0.8,0.,0.8,0.,0.8,4.,0.8
1981-08-29 00:01:12.170 ,7,0,0.,0.8,0.,0.8,0.,0.8,2.,0.8
1981-08-29 00:01:12.970 ,7,0,0.,0.8,0.,0.8,0.,0.8,8.,0.8
1981-08-29 00:01:13.760 ,7,0,0.,0.8,0.,0.8,0.,0.8,4.,0.8
1981-08-29 00:01:14.570 ,7,0,0.,0.8,0.,0.8,0.,0.8,1.,0.8
1981-08-29 00:01:15.370 ,7,0,0.,0.8,0.,0.8,0.,0.8,5.,0.8
1981-08-29 00:01:16.170 ,7,0,0.,0.8,0.,0.8,0.,0.8,3.,0.8
1981-08-29 00:01:16.970 ,7,0,0.,0.8,0.,0.8,0.,0.8,4.,0.8
1981-08-29 00:01:17.770 ,7,0,0.,0.8,0.,0.8,0.,0.8,5.,0.8
1981-08-29 00:01:18.570 ,7,0,0.,0.8,0.,0.8,0.,0.8,10.,0.8
1981-08-29 00:01:19.370 ,7,0,0.,0.8,0.,0.8,0.,0.8,7.,0.8
1981-08-29 00:01:20.170 ,7,0,0.,0.8,0.,0.8,0.,0.8,2.,0.8
1981-08-29 00:01:20.970 ,7,0,0.,0.8,0.,0.8,0.,0.8,7.,0.8
1981-08-29 00:01:21.770 ,7,0,0.,0.8,0.,0.8,0.,0.8,4.,0.8
1981-08-29 00:01:22.570 ,7,0,0.,0.8,0.,0.8,0.,0.8,4.,0.8
1981-08-29 00:01:23.370 ,7,0,0.,0.8,0.,0.8,0.,0.8,3.,0.8
1981-08-29 00:01:24.170 ,7,0,0.,0.8,0.,0.8,0.,0.8,3.,0.8
1981-08-29 00:01:24.970 ,7,0,0.,0.8,0.,0.8,0.,0.8,3.,0.8
1981-08-29 00:01:25.770 ,7,0,0.,0.8,0.,0.8,0.,0.8,1.,0.8
1981-08-29 00:01:26.570 ,7,0,0.,0.8,0.,0.8,0.,0.8,5.,0.8
1981-08-29 00:01:27.370 ,7,0,0.,0.8,0.,0.8,0.,0.8,5.,0.8
1981-08-29 00:01:28.170 ,7,0,0.,0.8,0.,0.8,0.,0.8,2.,0.8
1981-08-29 00:01:28.970 ,7,0,0.,0.8,0.,0.8,0.,0.8,4.,0.8
1981-08-29 00:01:29.770 ,7,0,0.,0.8,0.,0.8,0.,0.8,5.,0.8
1981-08-29 00:01:30.570 ,7,0,0.,0.8,0.,0.8,0.,0.8,5.,0.8
1981-08-29 00:01:31.370 ,7,0,0.,0.8,0.,0.8,0.,0.8,3.,0.8
1981-08-29 00:01:32.170 ,7,0,0.,0.8,0.,0.8,0.,0.8,5.,0.8
1981-08-29 00:01:32.970 ,7,0,0.,0.8,0.,0.8,0.,0.8,2.,0.8
1981-08-29 00:01:33.770 ,7,0,0.,0.8,0.,0.8,0.,0.8,3.,0.8
1981-08-29 00:01:34.570 ,7,0,0.,0.8,0.,0.8,0.,0.8,9.,0.8
1981-08-29 00:01:35.370 ,7,0,0.,0.8,0.,0.8,0.,0.8,5.,0.8
1981-08-29 00:01:36.170 ,7,0,0.,0.8,0.,0.8,0.,0.8,6.,0.8
1981-08-29 00:01:36.970 ,7,0,0.,0.8,0.,0.8,0.,0.8,1.,0.8
1981-08-29 00:01:37.770 ,7,0,0.,0.8,0.,0.8,0.,0.8,3.,0.8
1981-08-29 00:01:38.570 ,7,0,0.,0.8,0.,0.8,0.,0.8,3.,0.8
1981-08-29 00:01:39.370 ,7,0,0.,0.8,0.,0.8,0.,0.8,5.,0.8
1981-08-29 00:01:40.170 ,7,0,0.,0.8,0.,0.8,0.,0.8,4.,0.8
1981-08-29 00:01:40.970 ,7,0,0.,0.8,0.,0.8,0.,0.8,3.,0.8
1981-08-29 00:01:41.770 ,7,0,0.,0.8,0.,0.8,0.,0.8,3.,0.8
1981-08-29 00:01:42.570 ,7,0,0.,0.8,0.,0.8,0.,0.8,7.,0.8
1981-08-29 00:01:43.370 ,7,0,0.,0.8,0.,0.8,0.,0.8,6.,0.8
1981-08-29 00:01:44.170 ,7,0,0.,0.8,0.,0.8,0.,0.8,3.,0.8
1981-08-29 00:01:44.970 ,7,0,0.,0.8,0.,0.8,0.,0.8,2.,0.8
1981-08-29 00:01:45.770 ,7,0,0.,0.8,0.,0.8,0.,0.8,4.,0.8
1981-08-29 00:01:46.570 ,7,0,0.,0.8,0.,0.8,0.,0.8,6.,0.8
1981-08-29 00:01:47.370 ,7,0,0.,0.8,0.,0.8,0.,0.8,5.,0.8
1981-08-29 00:01:48.170 ,7,0,0.,0.8,0.,0.8,0.,0.8,4.,0.8
1981-08-29 00:01:48.970 ,7,0,0.,0.8,0.,0.8,0.,0.8,3.,0.8
1981-08-29 00:01:49.770 ,7,0,0.,0.8,0.,0.8,0.,0.8,3.,0.8
1981-08-29 00:01:50.570 ,7,0,0.,0.8,0.,0.8,0.,0.8,2.,0.8
1981-08-29 00:01:51.370 ,7,0,0.,0.8,0.,0.8,0.,0.8,2.,0.8
1981-08-29 00:01:52.170 ,7,0,0.,0.8,0.,0.8,0.,0.8,5.,0.8
1981-08-29 00:01:52.970 ,7,0,0.,0.8,0.,0.8,0.,0.8,2.,0.8
1981-08-29 00:01:53.770 ,7,0,0.,0.8,0.,0.8,0.,0.8,0.,0.8
1981-08-29 00:01:54.570 ,7,0,0.,0.8,0.,0.8,0.,0.8,1.,0.8
1981-08-29 00:01:55.370 ,7,0,0.,0.8,0.,0.8,0.,0.8,3.,0.8
1981-08-29 00:01:56.170 ,7,0,0.,0.8,0.,0.8,0.,0.8,5.,0.8
1981-08-29 00:01:56.970 ,7,0,0.,0.8,0.,0.8,0.,0.8,3.,0.8
1981-08-29 00:01:57.770 ,7,0,0.,0.8,0.,0.8,0.,0.8,5.,0.8
1981-08-29 00:01:58.570 ,7,0,0.,0.8,0.,0.8,0.,0.8,2.,0.8
1981-08-29 00:01:59.370 ,6,0,0.,0.8,0.,0.8,0.,0.8,5.,0.8
1981-08-29 00:02:00.170 ,6,0,0.,0.8,0.,0.8,0.,0.8,4.,0.8
1981-08-29 00:02:00.970 ,6,0,0.,0.8,0.,0.8,0.,0.8,2.,0.8
1981-08-29 00:02:01.770 ,6,0,0.,0.8,0.,0.8,0.,0.8,3.,0.8
1981-08-29 00:02:02.570 ,6,0,0.,0.8,0.,0.8,0.,0.8,2.,0.8
1981-08-29 00:02:03.370 ,6,0,0.,0.8,0.,0.8,0.,0.8,8.,0.8
1981-08-29 00:02:04.170 ,6,0,0.,0.8,0.,0.8,0.,0.8,1.,0.8
1981-08-29 00:02:04.970 ,6,0,0.,0.8,0.,0.8,0.,0.8,6.,0.8
1981-08-29 00:02:05.770 ,6,0,0.,0.8,0.,0.8,0.,0.8,5.,0.8
1981-08-29 00:02:06.570 ,6,0,0.,0.8,0.,0.8,0.,0.8,4.,0.8
1981-08-29 00:02:07.370 ,6,0,0.,0.8,0.,0.8,0.,0.8,3.,0.8
1981-08-29 00:02:08.170 ,6,0,0.,0.8,0.,0.8,0.,0.8,2.,0.8
1981-08-29 00:02:08.970 ,6,0,0.,0.8,0.,0.8,0.,0.8,4.,0.8
1981-08-29 00:02:09.770 ,6,0,0.,0.8,0.,0.8,0.,0.8,5.,0.8
1981-08-29 00:02:10.570 ,6,0,0.,0.8,0.,0.8,0.,0.8,5.,0.8
1981-08-29 00:02:11.370 ,6,0,0.,0.8,0.,0.8,0.,0.8,0.,0.8
1981-08-29 00:02:12.170 ,6,0,0.,0.8,0.,0.8,0.,0.8,4.,0.8
1981-08-29 00:02:12.970 ,6,0,0.,0.8,0.,0.8,0.,0.8,1.,0.8
1981-08-29 00:02:13.770 ,6,0,0.,0.8,0.,0.8,0.,0.8,7.,0.8
1981-08-29 00:02:14.570 ,6,0,0.,0.8,0.,0.8,0.,0.8,3.,0.8
1981-08-29 00:02:15.370 ,6,0,0.,0.8,0.,0.8,0.,0.8,2.,0.8
1981-08-29 00:02:16.170 ,6,0,0.,0.8,0.,0.8,0.,0.8,6.,0.8
1981-08-29 00:02:16.970 ,6,0,0.,0.8,0.,0.8,0.,0.8,4.,0.8
1981-08-29 00:02:17.770 ,6,0,0.,0.8,0.,0.8,0.,0.8,2.,0.8
1981-08-29 00:02:18.570 ,6,0,0.,0.8,0.,0.8,0.,0.8,5.,0.8
1981-08-29 00:02:19.370 ,6,0,0.,0.8,0.,0.8,0.,0.8,6.,0.8
1981-08-29 00:02:20.170 ,6,0,0.,0.8,0.,0.8,0.,0.8,6.,0.8
1981-08-29 00:02:20.970 ,6,0,0.,0.8,0.,0.8,0.,0.8,2.,0.8
1981-08-29 00:02:21.770 ,6,0,0.,0.8,0.,0.8,0.,0.8,3.,0.8
1981-08-29 00:02:22.570 ,6,0,0.,0.8,0.,0.8,0.,0.8,3.,0.8
1981-08-29 00:02:23.360 ,5,0,0.,0.8,0.,0.8,0.,0.8,3.,0.8
1981-08-29 00:02:24.160 ,5,0,0.,0.8,0.,0.8,0.,0.8,2.,0.8
1981-08-29 00:02:24.960 ,5,0,0.,0.8,0.,0.8,0.,0.8,3.,0.8
1981-08-29 00:02:25.760 ,5,0,0.,0.8,0.,0.8,0.,0.8,3.,0.8
1981-08-29 00:02:26.560 ,5,0,0.,0.8,0.,0.8,0.,0.8,7.,0.8
1981-08-29 00:02:27.360 ,5,0,0.,0.8,0.,0.8,0.,0.8,4.,0.8
1981-08-29 00:02:28.160 ,5,0,0.,0.8,0.,0.8,0.,0.8,5.,0.8
1981-08-29 00:02:28.960 ,5,0,0.,0.8,0.,0.8,0.,0.8,3.,0.8
1981-08-29 00:02:29.760 ,5,0,0.,0.8,0.,0.8,0.,0.8,7.,0.8
1981-08-29 00:02:30.570 ,5,0,0.,0.8,0.,0.8,0.,0.8,5.,0.8
1981-08-29 00:02:31.370 ,5,0,0.,0.8,0.,0.8,0.,0.8,7.,0.8
1981-08-29 00:02:32.160 ,5,0,0.,0.8,0.,0.8,0.,0.8,3.,0.8
1981-08-29 00:02:32.960 ,5,0,0.,0.8,0.,0.8,0.,0.8,3.,0.8
1981-08-29 00:02:33.760 ,5,0,0.,0.8,0.,0.8,0.,0.8,4.,0.8
1981-08-29 00:02:34.570 ,5,0,0.,0.8,0.,0.8,0.,0.8,1.,0.8
1981-08-29 00:02:35.370 ,5,0,0.,0.8,0.,0.8,0.,0.8,3.,0.8
1981-08-29 00:02:36.160 ,5,0,0.,0.8,0.,0.8,0.,0.8,2.,0.8
1981-08-29 00:02:36.960 ,5,0,0.,0.8,0.,0.8,0.,0.8,6.,0.8
1981-08-29 00:02:37.760 ,5,0,0.,0.8,0.,0.8,0.,0.8,4.,0.8
1981-08-29 00:02:38.570 ,5,0,0.,0.8,0.,0.8,0.,0.8,8.,0.8
1981-08-29 00:02:39.370 ,5,0,0.,0.8,0.,0.8,0.,0.8,3.,0.8
1981-08-29 00:02:40.160 ,5,0,0.,0.8,0.,0.8,0.,0.8,3.,0.8
1981-08-29 00:02:40.970 ,5,0,0.,0.8,0.,0.8,0.,0.8,2.,0.8
1981-08-29 00:02:41.760 ,5,0,0.,0.8,0.,0.8,0.,0.8,3.,0.8
1981-08-29 00:02:42.570 ,5,0,0.,0.8,0.,0.8,0.,0.8,4.,0.8
1981-08-29 00:02:43.370 ,5,0,0.,0.8,0.,0.8,0.,0.8,2.,0.8
1981-08-29 00:02:44.170 ,5,0,0.,0.8,0.,0.8,0.,0.8,4.,0.8
1981-08-29 00:02:44.970 ,5,0,0.,0.8,0.,0.8,0.,0.8,2.,0.8
1981-08-29 00:02:45.760 ,5,0,0.,0.8,0.,0.8,0.,0.8,3.,0.8
1981-08-29 00:02:46.570 ,5,0,0.,0.8,0.,0.8,0.,0.8,5.,0.8
1981-08-29 00:02:47.360 ,4,0,0.,0.8,0.,0.8,0.,0.8,3.,0.8
1981-08-29 00:02:48.160 ,4,0,0.,0.8,0.,0.8,0.,0.8,6.,0.8
1981-08-29 00:02:48.960 ,4,0,0.,0.8,0.,0.8,0.,0.8,4.,0.8
1981-08-29 00:02:49.760 ,4,0,0.,0.8,0.,0.8,0.,0.8,6.,0.8
1981-08-29 00:02:50.570 ,4,0,0.,0.8,0.,0.8,0.,0.8,4.,0.8
1981-08-29 00:02:51.360 ,4,0,0.,0.8,0.,0.8,0.,0.8,2.,0.8
1981-08-29 00:02:52.160 ,4,0,0.,0.8,0.,0.8,0.,0.8,5.,0.8
1981-08-29 00:02:52.960 ,4,0,0.,0.8,0.,0.8,0.,0.8,3.,0.8
1981-08-29 00:02:53.760 ,4,0,0.,0.8,0.,0.8,0.,0.8,4.,0.8
1981-08-29 00:02:54.570 ,4,0,0.,0.8,0.,0.8,0.,0.8,2.,0.8
1981-08-29 00:02:55.360 ,4,0,0.,0.8,0.,0.8,0.,0.8,7.,0.8
1981-08-29 00:02:56.160 ,4,0,0.,0.8,0.,0.8,0.,0.8,3.,0.8
1981-08-29 00:02:56.960 ,4,0,0.,0.8,0.,0.8,0.,0.8,4.,0.8
1981-08-29 00:02:57.760 ,4,0,0.,0.8,0.,0.8,0.,0.8,8.,0.8
1981-08-29 00:02:58.570 ,4,0,0.,0.8,0.,0.8,0.,0.8,3.,0.8
1981-08-29 00:02:59.370 ,4,0,0.,0.8,0.,0.8,0.,0.8,2.,0.8
1981-08-29 00:03:00.170 ,4,0,0.,0.8,0.,0.8,0.,0.8,2.,0.8
1981-08-29 00:03:00.960 ,4,0,0.,0.8,0.,0.8,0.,0.8,5.,0.8
1981-08-29 00:03:01.760 ,4,0,0.,0.8,0.,0.8,0.,0.8,8.,0.8
1981-08-29 00:03:02.570 ,4,0,0.,0.8,0.,0.8,0.,0.8,6.,0.8
1981-08-29 00:03:03.370 ,4,0,0.,0.8,0.,0.8,0.,0.8,4.,0.8
1981-08-29 00:03:04.160 ,4,0,0.,0.8,0.,0.8,0.,0.8,4.,0.8
1981-08-29 00:03:04.960 ,4,0,0.,0.8,0.,0.8,0.,0.8,7.,0.8
1981-08-29 00:03:05.760 ,4,0,0.,0.8,0.,0.8,0.,0.8,4.,0.8
1981-08-29 00:03:06.570 ,4,0,0.,0.8,0.,0.8,0.,0.8,7.,0.8
1981-08-29 00:03:07.370 ,4,0,0.,0.8,0.,0.8,0.,0.8,3.,0.8
1981-08-29 00:03:08.160 ,4,0,0.,0.8,0.,0.8,0.,0.8,3.,0.8
1981-08-29 00:03:08.970 ,4,0,0.,0.8,0.,0.8,0.,0.8,5.,0.8
1981-08-29 00:03:09.770 ,4,0,0.,0.8,0.,0.8,0.,0.8,2.,0.8
1981-08-29 00:03:10.570 ,4,0,0.,0.8,0.,0.8,0.,0.8,4.,0.8
1981-08-29 00:03:11.360 ,3,0,0.,0.8,0.,0.8,0.,0.8,6.,0.8
1981-08-29 00:03:12.160 ,3,0,0.,0.8,0.,0.8,0.,0.8,2.,0.8
1981-08-29 00:03:12.960 ,3,0,0.,0.8,0.,0.8,0.,0.8,6.,0.8
1981-08-29 00:03:13.760 ,3,0,0.,0.8,0.,0.8,0.,0.8,4.,0.8
1981-08-29 00:03:14.570 ,3,0,0.,0.8,0.,0.8,0.,0.8,2.,0.8
1981-08-29 00:03:15.360 ,3,0,0.,0.8,0.,0.8,0.,0.8,2.,0.8
1981-08-29 00:03:16.160 ,3,0,0.,0.8,0.,0.8,0.,0.8,6.,0.8
1981-08-29 00:03:16.960 ,3,0,0.,0.8,0.,0.8,0.,0.8,6.,0.8
1981-08-29 00:03:17.760 ,3,0,0.,0.8,0.,0.8,0.,0.8,7.,0.8
1981-08-29 00:03:18.570 ,3,0,0.,0.8,0.,0.8,0.,0.8,6.,0.8
1981-08-29 00:03:19.370 ,3,0,0.,0.8,0.,0.8,0.,0.8,1.,0.8
1981-08-29 00:03:20.160 ,3,0,0.,0.8,0.,0.8,0.,0.8,4.,0.8
1981-08-29 00:03:20.960 ,3,0,0.,0.8,0.,0.8,0.,0.8,4.,0.8
1981-08-29 00:03:21.760 ,3,0,0.,0.8,0.,0.8,0.,0.8,3.,0.8
1981-08-29 00:03:22.570 ,3,0,0.,0.8,0.,0.8,0.,0.8,5.,0.8
1981-08-29 00:03:23.370 ,3,0,0.,0.8,0.,0.8,0.,0.8,5.,0.8
1981-08-29 00:03:24.170 ,3,0,0.,0.8,0.,0.8,0.,0.8,5.,0.8
1981-08-29 00:03:24.960 ,3,0,0.,0.8,0.,0.8,0.,0.8,5.,0.8
1981-08-29 00:03:25.760 ,3,0,0.,0.8,0.,0.8,0.,0.8,2.,0.8
1981-08-29 00:03:26.570 ,3,0,0.,0.8,0.,0.8,0.,0.8,4.,0.8
1981-08-29 00:03:27.370 ,3,0,0.,0.8,0.,0.8,0.,0.8,3.,0.8
1981-08-29 00:03:28.160 ,3,0,0.,0.8,0.,0.8,0.,0.8,3.,0.8
1981-08-29 00:03:28.960 ,3,0,0.,0.8,0.,0.8,0.,0.8,4.,0.8
1981-08-29 00:03:29.760 ,3,0,0.,0.8,0.,0.8,0.,0.8,1.,0.8
1981-08-29 00:03:30.570 ,3,0,0.,0.8,0.,0.8,0.,0.8,3.,0.8
1981-08-29 00:03:31.370 ,3,0,0.,0.8,0.,0.8,0.,0.8,6.,0.8
1981-08-29 00:03:32.170 ,3,0,0.,0.8,0.,0.8,0.,0.8,1.,0.8
1981-08-29 00:03:32.970 ,3,0,0.,0.8,0.,0.8,0.,0.8,5.,0.8
1981-08-29 00:03:33.770 ,3,0,0.,0.8,0.,0.8,0.,0.8,3.,0.8
1981-08-29 00:03:34.570 ,3,0,0.,0.8,0.,0.8,0.,0.8,2.,0.8
1981-08-29 00:03:35.360 ,2,0,0.,0.8,0.,0.8,0.,0.8,0.,0.8
1981-08-29 00:03:36.160 ,2,0,0.,0.8,0.,0.8,0.,0.8,0.,0.8
1981-08-29 00:03:36.960 ,2,0,0.,0.8,0.,0.8,0.,0.8,7.,0.8
1981-08-29 00:03:37.760 ,2,0,0.,0.8,0.,0.8,0.,0.8,1.,0.8
1981-08-29 00:03:38.570 ,2,0,0.,0.8,0.,0.8,0.,0.8,3.,0.8
1981-08-29 00:03:39.360 ,2,0,0.,0.8,0.,0.8,0.,0.8,3.,0.8
1981-08-29 00:03:40.160 ,2,0,0.,0.8,0.,0.8,0.,0.8,3.,0.8
1981-08-29 00:03:40.960 ,2,0,0.,0.8,0.,0.8,0.,0.8,3.,0.8
1981-08-29 00:03:41.760 ,2,0,0.,0.8,0.,0.8,0.,0.8,5.,0.8
1981-08-29 00:03:42.570 ,2,0,0.,0.8,0.,0.8,0.,0.8,4.,0.8
1981-08-29 00:03:43.360 ,2,0,0.,0.8,0.,0.8,0.,0.8,2.,0.8
1981-08-29 00:03:44.160 ,2,0,0.,0.8,0.,0.8,0.,0.8,8.,0.8
1981-08-29 00:03:44.960 ,2,0,0.,0.8,0.,0.8,0.,0.8,3.,0.8
1981-08-29 00:03:45.760 ,2,0,0.,0.8,0.,0.8,0.,0.8,4.,0.8
1981-08-29 00:03:46.570 ,2,0,0.,0.8,0.,0.8,0.,0.8,8.,0.8
1981-08-29 00:03:47.370 ,2,0,0.,0.8,0.,0.8,0.,0.8,3.,0.8
1981-08-29 00:03:48.170 ,2,0,0.,0.8,0.,0.8,0.,0.8,7.,0.8
1981-08-29 00:03:48.960 ,2,0,0.,0.8,0.,0.8,0.,0.8,1.,0.8
1981-08-29 00:03:49.760 ,2,0,0.,0.8,0.,0.8,0.,0.8,5.,0.8
1981-08-29 00:03:50.570 ,2,0,0.,0.8,0.,0.8,0.,0.8,2.,0.8
1981-08-29 00:03:51.370 ,2,0,0.,0.8,0.,0.8,0.,0.8,5.,0.8
1981-08-29 00:03:52.170 ,2,0,0.,0.8,0.,0.8,0.,0.8,7.,0.8
1981-08-29 00:03:52.960 ,2,0,0.,0.8,0.,0.8,0.,0.8,4.,0.8
1981-08-29 00:03:53.760 ,2,0,0.,0.8,0.,0.8,0.,0.8,4.,0.8
1981-08-29 00:03:54.570 ,2,0,0.,0.8,0.,0.8,0.,0.8,2.,0.8
1981-08-29 00:03:55.370 ,2,0,0.,0.8,0.,0.8,0.,0.8,4.,0.8
1981-08-29 00:03:56.170 ,2,0,0.,0.8,0.,0.8,0.,0.8,4.,0.8
1981-08-29 00:03:56.970 ,2,0,0.,0.8,0.,0.8,0.,0.8,0.,0.8
1981-08-29 00:03:57.770 ,2,0,0.,0.8,0.,0.8,0.,0.8,0.,0.8
1981-08-29 00:03:58.570 ,2,0,0.,0.8,0.,0.8,0.,0.8,2.,0.8
1981-08-29 00:03:59.360 ,1,0,0.,0.8,0.,0.8,0.,0.8,2.,0.8
1981-08-29 00:04:00.160 ,1,0,0.,0.8,0.,0.8,0.,0.8,3.,0.8
1981-08-29 00:04:00.960 ,1,0,0.,0.8,0.,0.8,0.,0.8,4.,0.8
1981-08-29 00:04:01.760 ,1,0,0.,0.8,0.,0.8,0.,0.8,4.,0.8
1981-08-29 00:04:02.570 ,1,0,0.,0.8,0.,0.8,0.,0.8,4.,0.8
1981-08-29 00:04:03.360 ,1,0,0.,0.8,0.,0.8,0.,0.8,5.,0.8
1981-08-29 00:04:04.160 ,1,0,0.,0.8,0.,0.8,0.,0.8,3.,0.8
1981-08-29 00:04:04.960 ,1,0,0.,0.8,0.,0.8,0.,0.8,4.,0.8
1981-08-29 00:04:05.760 ,1,0,0.,0.8,0.,0.8,0.,0.8,4.,0.8
1981-08-29 00:04:06.570 ,1,0,0.,0.8,0.,0.8,0.,0.8,2.,0.8
1981-08-29 00:04:07.370 ,1,0,0.,0.8,0.,0.8,0.,0.8,4.,0.8
1981-08-29 00:04:08.160 ,1,0,0.,0.8,0.,0.8,0.,0.8,5.,0.8
1981-08-29 00:04:08.960 ,1,0,0.,0.8,0.,0.8,0.,0.8,4.,0.8
1981-08-29 00:04:09.760 ,1,0,0.,0.8,0.,0.8,0.,0.8,2.,0.8
1981-08-29 00:04:10.570 ,1,0,0.,0.8,0.,0.8,0.,0.8,2.,0.8
1981-08-29 00:04:11.370 ,1,0,0.,0.8,0.,0.8,0.,0.8,5.,0.8
1981-08-29 00:04:12.170 ,1,0,0.,0.8,0.,0.8,0.,0.8,2.,0.8
1981-08-29 00:04:12.970 ,1,0,0.,0.8,0.,0.8,0.,0.8,7.,0.8
1981-08-29 00:04:13.760 ,1,0,0.,0.8,0.,0.8,0.,0.8,0.,0.8
1981-08-29 00:04:14.570 ,1,0,0.,0.8,0.,0.8,0.,0.8,4.,0.8
1981-08-29 00:04:15.370 ,1,0,0.,0.8,0.,0.8,0.,0.8,2.,0.8
1981-08-29 00:04:16.170 ,1,0,0.,0.8,0.,0.8,0.,0.8,5.,0.8
1981-08-29 00:04:16.960 ,1,0,0.,0.8,0.,0.8,0.,0.8,3.,0.8
1981-08-29 00:04:17.770 ,1,0,0.,0.8,0.,0.8,0.,0.8,3.,0.8
1981-08-29 00:04:18.570 ,1,0,0.,0.8,0.,0.8,0.,0.8,4.,0.8
1981-08-29 00:04:19.360 ,1,0,0.,0.8,0.,0.8,0.,0.8,4.,0.8
1981-08-29 00:04:20.170 ,1,0,0.,0.8,0.,0.8,0.,0.8,1.,0.8
1981-08-29 00:04:20.960 ,1,0,0.,0.8,0.,0.8,0.,0.8,7.,0.8
1981-08-29 00:04:21.770 ,1,0,0.,0.8,0.,0.8,0.,0.8,1.,0.8
1981-08-29 00:04:22.570 ,1,0,0.,0.8,0.,0.8,0.,0.8,4.,0.8
1981-08-29 00:04:23.370 ,0,0,0.,0.8,0.,0.8,0.,0.8,3.,0.8
1981-08-29 00:04:24.170 ,0,0,0.,0.8,0.,0.8,0.,0.8,2.,0.8
1981-08-29 00:04:24.960 ,0,0,0.,0.8,0.,0.8,0.,0.8,6.,0.8
1981-08-29 00:04:25.770 ,0,0,0.,0.8,0.,0.8,0.,0.8,4.,0.8
1981-08-29 00:04:26.570 ,0,0,0.,0.8,0.,0.8,0.,0.8,2.,0.8
1981-08-29 00:04:27.370 ,0,0,0.,0.8,0.,0.8,0.,0.8,5.,0.8
1981-08-29 00:04:28.170 ,0,0,0.,0.8,0.,0.8,0.,0.8,1.,0.8
1981-08-29 00:04:28.960 ,0,0,0.,0.8,0.,0.8,0.,0.8,0.,0.8
1981-08-29 00:04:29.770 ,0,0,0.,0.8,0.,0.8,0.,0.8,4.,0.8
1981-08-29 00:04:30.570 ,0,0,0.,0.8,0.,0.8,0.,0.8,1.,0.8
1981-08-29 00:04:31.370 ,0,0,0.,0.8,0.,0.8,0.,0.8,4.,0.8
1981-08-29 00:04:32.170 ,0,0,0.,0.8,0.,0.8,0.,0.8,1.,0.8
1981-08-29 00:04:32.970 ,0,0,0.,0.8,0.,0.8,0.,0.8,6.,0.8
1981-08-29 00:04:33.770 ,0,0,0.,0.8,0.,0.8,0.,0.8,4.,0.8
1981-08-29 00:04:34.570 ,0,0,0.,0.8,0.,0.8,0.,0.8,4.,0.8
1981-08-29 00:04:35.370 ,0,0,0.,0.8,0.,0.8,0.,0.8,4.,0.8
1981-08-29 00:04:36.170 ,0,0,0.,0.8,0.,0.8,0.,0.8,6.,0.8
1981-08-29 00:04:36.970 ,0,0,0.,0.8,0.,0.8,0.,0.8,4.,0.8
1981-08-29 00:04:37.770 ,0,0,0.,0.8,0.,0.8,0.,0.8,3.,0.8
1981-08-29 00:04:38.570 ,0,0,0.,0.8,0.,0.8,0.,0.8,3.,0.8
1981-08-29 00:04:39.370 ,0,0,0.,0.8,0.,0.8,0.,0.8,2.,0.8
1981-08-29 00:04:40.170 ,0,0,0.,0.8,0.,0.8,0.,0.8,4.,0.8
1981-08-29 00:04:40.970 ,0,0,0.,0.8,0.,0.8,0.,0.8,2.,0.8
1981-08-29 00:04:41.770 ,0,0,0.,0.8,0.,0.8,0.,0.8,3.,0.8
1981-08-29 00:04:42.570 ,0,0,0.,0.8,0.,0.8,0.,0.8,5.,0.8
1981-08-29 00:04:43.370 ,0,0,0.,0.8,0.,0.8,0.,0.8,3.,0.8
1981-08-29 00:04:44.170 ,0,0,0.,0.8,0.,0.8,0.,0.8,6.,0.8
1981-08-29 00:04:44.970 ,0,0,0.,0.8,0.,0.8,0.,0.8,1.,0.8
1981-08-29 00:04:45.770 ,0,0,0.,0.8,0.,0.8,0.,0.8,0.,0.8
1981-08-29 00:04:46.570 ,0,0,0.,0.8,0.,0.8,0.,0.8,5.,0.8
1981-08-29 00:04:47.370 ,0,0,0.,0.8,0.,0.8,0.,0.8,1.,0.8
1981-08-29 00:04:48.170 ,0,0,0.,0.8,0.,0.8,0.,0.8,9.,0.8
1981-08-29 00:04:48.960 ,0,0,0.,0.8,0.,0.8,0.,0.8,3.,0.8
1981-08-29 00:04:49.770 ,0,0,0.,0.8,0.,0.8,0.,0.8,5.,0.8
1981-08-29 00:04:50.570 ,0,0,0.,0.8,0.,0.8,0.,0.8,5.,0.8
1981-08-29 00:04:51.370 ,0,0,0.,0.8,0.,0.8,0.,0.8,3.,0.8
1981-08-29 00:04:52.170 ,0,0,0.,0.8,0.,0.8,0.,0.8,5.,0.8
1981-08-29 00:04:52.970 ,0,0,0.,0.8,0.,0.8,0.,0.8,7.,0.8
1981-08-29 00:04:53.770 ,0,0,0.,0.8,0.,0.8,0.,0.8,3.,0.8
1981-08-29 00:04:54.570 ,0,0,0.,0.8,0.,0.8,0.,0.8,1.,0.8
1981-08-29 00:04:55.370 ,0,0,0.,0.8,0.,0.8,0.,0.8,3.,0.8
1981-08-29 00:04:56.170 ,0,0,0.,0.8,0.,0.8,0.,0.8,1.,0.8
1981-08-29 00:04:56.970 ,0,0,0.,0.8,0.,0.8,0.,0.8,1.,0.8
1981-08-29 00:04:57.770 ,0,0,0.,0.8,0.,0.8,0.,0.8,6.,0.8
1981-08-29 00:04:58.570 ,0,0,0.,0.8,0.,0.8,0.,0.8,4.,0.8
1981-08-29 00:04:59.370 ,0,0,0.,0.8,0.,0.8,0.,0.8,1.,0.8
1981-08-29 00:05:00.170 ,0,0,0.,0.8,0.,0.8,0.,0.8,1.,0.8
1981-08-29 00:05:00.970 ,0,0,0.,0.8,0.,0.8,0.,0.8,8.,0.8
1981-08-29 00:05:01.770 ,0,0,0.,0.8,0.,0.8,0.,0.8,6.,0.8
1981-08-29 00:05:02.570 ,0,0,0.,0.8,0.,0.8,0.,0.8,3.,0.8
1981-08-29 00:05:03.370 ,0,0,0.,0.8,0.,0.8,0.,0.8,0.,0.8
1981-08-29 00:05:04.170 ,0,0,0.,0.8,0.,0.8,0.,0.8,1.,0.8
1981-08-29 00:05:04.970 ,0,0,0.,0.8,0.,0.8,0.,0.8,8.,0.8
1981-08-29 00:05:05.770 ,0,0,0.,0.8,0.,0.8,0.,0.8,1.,0.8
1981-08-29 00:05:06.570 ,0,0,0.,0.8,0.,0.8,0.,0.8,3.,0.8
1981-08-29 00:05:07.370 ,0,0,0.,0.8,0.,0.8,0.,0.8,4.,0.8
1981-08-29 00:05:08.170 ,0,0,0.,0.8,0.,0.8,0.,0.8,7.,0.8
1981-08-29 00:05:08.970 ,0,0,0.,0.8,0.,0.8,0.,0.8,3.,0.8
1981-08-29 00:05:09.770 ,0,0,0.,0.8,0.,0.8,0.,0.8,4.,0.8
1981-08-29 00:05:10.570 ,0,0,0.,0.8,0.,0.8,0.,0.8,6.,0.8
1981-08-29 00:05:11.370 ,1,0,0.,0.8,0.,0.8,0.,0.8,6.,0.8
1981-08-29 00:05:12.170 ,1,0,0.,0.8,0.,0.8,0.,0.8,6.,0.8
1981-08-29 00:05:12.960 ,1,0,0.,0.8,0.,0.8,0.,0.8,3.,0.8
1981-08-29 00:05:13.770 ,1,0,0.,0.8,0.,0.8,0.,0.8,3.,0.8
1981-08-29 00:05:14.570 ,1,0,0.,0.8,0.,0.8,0.,0.8,2.,0.8
1981-08-29 00:05:15.370 ,1,0,0.,0.8,0.,0.8,0.,0.8,3.,0.8
1981-08-29 00:05:16.170 ,1,0,0.,0.8,0.,0.8,0.,0.8,2.,0.8
1981-08-29 00:05:16.970 ,1,0,0.,0.8,0.,0.8,0.,0.8,4.,0.8
1981-08-29 00:05:17.770 ,1,0,0.,0.8,0.,0.8,0.,0.8,3.,0.8
1981-08-29 00:05:18.570 ,1,0,0.,0.8,0.,0.8,0.,0.8,6.,0.8
1981-08-29 00:05:19.370 ,1,0,0.,0.8,0.,0.8,0.,0.8,6.,0.8
1981-08-29 00:05:20.170 ,1,0,0.,0.8,0.,0.8,0.,0.8,1.,0.8
1981-08-29 00:05:20.970 ,1,0,0.,0.8,0.,0.8,0.,0.8,1.,0.8
1981-08-29 00:05:21.770 ,1,0,0.,0.8,0.,0.8,0.,0.8,6.,0.8
1981-08-29 00:05:22.570 ,1,0,0.,0.8,0.,0.8,0.,0.8,4.,0.8
1981-08-29 00:05:23.370 ,1,0,0.,0.8,0.,0.8,0.,0.8,5.,0.8
1981-08-29 00:05:24.170 ,1,0,0.,0.8,0.,0.8,0.,0.8,9.,0.8
1981-08-29 00:05:24.970 ,1,0,0.,0.8,0.,0.8,0.,0.8,4.,0.8
1981-08-29 00:05:25.770 ,1,0,0.,0.8,0.,0.8,0.,0.8,3.,0.8
1981-08-29 00:05:26.570 ,1,0,0.,0.8,0.,0.8,0.,0.8,2.,0.8
1981-08-29 00:05:27.370 ,1,0,0.,0.8,0.,0.8,0.,0.8,3.,0.8
1981-08-29 00:05:28.170 ,1,0,0.,0.8,0.,0.8,0.,0.8,5.,0.8
1981-08-29 00:05:28.970 ,1,0,0.,0.8,0.,0.8,0.,0.8,7.,0.8
1981-08-29 00:05:29.770 ,1,0,0.,0.8,0.,0.8,0.,0.8,4.,0.8
1981-08-29 00:05:30.570 ,1,0,0.,0.8,0.,0.8,0.,0.8,2.,0.8
1981-08-29 00:05:31.370 ,1,0,0.,0.8,0.,0.8,0.,0.8,4.,0.8
1981-08-29 00:05:32.170 ,1,0,0.,0.8,0.,0.8,0.,0.8,5.,0.8
1981-08-29 00:05:32.970 ,1,0,0.,0.8,0.,0.8,0.,0.8,3.,0.8
1981-08-29 00:05:33.770 ,1,0,0.,0.8,0.,0.8,0.,0.8,6.,0.8
1981-08-29 00:05:34.570 ,1,0,0.,0.8,0.,0.8,0.,0.8,2.,0.8
1981-08-29 00:05:35.370 ,2,0,0.,0.8,0.,0.8,0.,0.8,3.,0.8
1981-08-29 00:05:36.170 ,2,0,0.,0.8,0.,0.8,0.,0.8,5.,0.8
1981-08-29 00:05:36.960 ,2,0,0.,0.8,0.,0.8,0.,0.8,4.,0.8
1981-08-29 00:05:37.770 ,2,0,0.,0.8,0.,0.8,0.,0.8,2.,0.8
1981-08-29 00:05:38.570 ,2,0,0.,0.8,0.,0.8,0.,0.8,3.,0.8
1981-08-29 00:05:39.370 ,2,0,0.,0.8,0.,0.8,0.,0.8,2.,0.8
1981-08-29 00:05:40.170 ,2,0,0.,0.8,0.,0.8,0.,0.8,3.,0.8
1981-08-29 00:05:40.970 ,2,0,0.,0.8,0.,0.8,0.,0.8,4.,0.8
1981-08-29 00:05:41.770 ,2,0,0.,0.8,0.,0.8,0.,0.8,9.,0.8
1981-08-29 00:05:42.570 ,2,0,0.,0.8,0.,0.8,0.,0.8,4.,0.8
1981-08-29 00:05:43.370 ,2,0,0.,0.8,0.,0.8,0.,0.8,6.,0.8
1981-08-29 00:05:44.170 ,2,0,0.,0.8,0.,0.8,0.,0.8,3.,0.8
1981-08-29 00:05:44.970 ,2,0,0.,0.8,0.,0.8,0.,0.8,4.,0.8
1981-08-29 00:05:45.770 ,2,0,0.,0.8,0.,0.8,0.,0.8,2.,0.8
1981-08-29 00:05:46.570 ,2,0,0.,0.8,0.,0.8,0.,0.8,0.,0.8
1981-08-29 00:05:47.370 ,2,0,0.,0.8,0.,0.8,0.,0.8,2.,0.8
1981-08-29 00:05:48.170 ,2,0,0.,0.8,0.,0.8,0.,0.8,2.,0.8
1981-08-29 00:05:48.970 ,2,0,0.,0.8,0.,0.8,0.,0.8,6.,0.8
1981-08-29 00:05:49.770 ,2,0,0.,0.8,0.,0.8,0.,0.8,4.,0.8
1981-08-29 00:05:50.570 ,2,0,0.,0.8,0.,0.8,0.,0.8,1.,0.8
1981-08-29 00:05:51.370 ,2,0,0.,0.8,0.,0.8,0.,0.8,4.,0.8
1981-08-29 00:05:52.170 ,2,0,0.,0.8,0.,0.8,0.,0.8,1.,0.8